Stetsonville, WI

4:02 AM CDT on August 26, 2016 (GMT -0500)
Taylor County

Weather History for KMDZ - June, 2012

Change the Weather History Date:

Sunday, June 10, 2012

  Actual Average Record
Temperature  
Mean Temperature 74 °F -  
Max Temperature 84 °F 72 °F 88 °F (1956)
Min Temperature 64 °F 49 °F 30 °F (1972)
Cooling Degree Days 9    
Growing Degree Days 24 (Base 50)    
Moisture  
Dew Point 60 °F    
Average Humidity 59    
Maximum Humidity 77    
Minimum Humidity 39    
Precipitation  
Precipitation 0.00 in - - ()
Sea Level Pressure  
Sea Level Pressure 29.81 in    
Wind  
Wind Speed 10 mph (South)    
Max Wind Speed 22 mph    
Max Gust Speed 30 mph    
Visibility 10 miles    
Events      
Averages and records for this station are not official NWS values.
T = Trace of Precipitation, MM = Missing Value Source: NWS Daily Summary

Daily Weather History Graph

Daily Weather History Graph

Search for Another Location

Airport or City:

Trip Planner

Search our weather history database for the weather conditions in past years. The results will help you decide how hot, cold, wet, or windy it might be!

Date:

Astronomy

Jun. 10, 2012 Rise Set
Actual Time 5:13 AM CDT 8:47 PM CDT
Civil Twilight 4:36 AM CDT 9:25 PM CDT
Nautical Twilight 3:47 AM CDT 10:14 PM CDT
Astronomical Twilight 2:42 AM CDT 11:19 PM CDT
Moon 12:25 AM CDT (6/10) 12:18 PM CDT (6/10)
Length of Visible Light 16h 48m
Length of Day
15h 34m
Waning Gibbous, 58% of the Moon is Illuminated
Jun 10
Waning Gibbous
Jun 11
Last Quarter
Jun 19
New
Jun 26
First Quarter
Jul 3
Full

Hourly Weather History & Observations

Time (CDT) Temp. Heat Index Dew Point Humidity Pressure Visibility Wind Dir Wind Speed Gust Speed Precip Events Conditions
12:15 AM 69.8 °F - 55.4 °F 60% 29.81 in 10.0 mi South 9.2 mph - N/A   Clear
12:35 AM 69.8 °F - 55.4 °F 60% 29.81 in 10.0 mi South 9.2 mph - N/A   Clear
12:55 AM 69.8 °F - 55.4 °F 60% 29.81 in 10.0 mi South 8.1 mph - N/A   Clear
1:15 AM 68.0 °F - 55.4 °F 64% 29.81 in 10.0 mi South 6.9 mph - N/A   Clear
1:35 AM 68.0 °F - 55.4 °F 64% 29.81 in 10.0 mi South 5.8 mph - N/A   Clear
1:55 AM 66.2 °F - 55.4 °F 68% 29.81 in 10.0 mi South 5.8 mph - N/A   Clear
2:15 AM 66.2 °F - 55.4 °F 68% 29.81 in 10.0 mi South 5.8 mph - N/A   Clear
2:35 AM 66.2 °F - 55.4 °F 68% 29.81 in 10.0 mi South 6.9 mph - N/A   Clear
2:55 AM 66.2 °F - 55.4 °F 68% 29.81 in 10.0 mi South 5.8 mph - N/A   Clear
3:15 AM 66.2 °F - 55.4 °F 68% 29.80 in 10.0 mi SSE 6.9 mph - N/A   Clear
3:35 AM 64.4 °F - 55.4 °F 73% 29.80 in 10.0 mi SSE 5.8 mph - N/A   Clear
3:55 AM 64.4 °F - 55.4 °F 73% 29.80 in 10.0 mi SSE 5.8 mph - N/A   Clear
4:15 AM 64.4 °F - 55.4 °F 73% 29.80 in 10.0 mi SSE 5.8 mph - N/A   Clear
4:35 AM 64.4 °F - 55.4 °F 73% 29.81 in 10.0 mi SSE 5.8 mph - N/A   Clear
4:55 AM 64.4 °F - 55.4 °F 73% 29.82 in 10.0 mi South 5.8 mph - N/A   Clear
5:15 AM 64.4 °F - 55.4 °F 73% 29.82 in 10.0 mi South 5.8 mph - N/A   Clear
5:35 AM 64.4 °F - 55.4 °F 73% 29.83 in 10.0 mi SSE 5.8 mph - N/A   Clear
5:55 AM 64.4 °F - 55.4 °F 73% 29.83 in 10.0 mi SSE 5.8 mph - N/A   Clear
6:15 AM 64.4 °F - 57.2 °F 77% 29.83 in 10.0 mi SSE 6.9 mph - N/A   Clear
6:35 AM 66.2 °F - 57.2 °F 73% 29.84 in 10.0 mi SSE 6.9 mph - N/A   Clear
6:55 AM 66.2 °F - 57.2 °F 73% 29.84 in 10.0 mi SSE 8.1 mph - N/A   Clear
7:15 AM 68.0 °F - 59.0 °F 73% 29.85 in 10.0 mi SSE 5.8 mph - N/A   Clear
7:35 AM 69.8 °F - 59.0 °F 68% 29.86 in 10.0 mi SSE 8.1 mph - N/A   Clear
7:55 AM 71.6 °F - 60.8 °F 69% 29.86 in 10.0 mi South 10.4 mph - N/A   Clear
8:15 AM 71.6 °F - 60.8 °F 69% 29.86 in 10.0 mi South 10.4 mph 16.1 mph N/A   Clear
8:35 AM 73.4 °F - 60.8 °F 65% 29.86 in 10.0 mi South 11.5 mph - N/A   Clear
8:55 AM 73.4 °F - 62.6 °F 69% 29.87 in 10.0 mi South 10.4 mph - N/A   Clear
9:15 AM 75.2 °F - 62.6 °F 65% 29.87 in 10.0 mi South 9.2 mph - N/A   Clear
9:35 AM 77.0 °F - 62.6 °F 61% 29.86 in 10.0 mi South 9.2 mph 16.1 mph N/A   Clear
9:55 AM 77.0 °F - 64.4 °F 65% 29.85 in 10.0 mi South 10.4 mph 16.1 mph N/A   Clear
10:15 AM 78.8 °F - 64.4 °F 61% 29.85 in 10.0 mi South 11.5 mph - N/A   Clear
10:35 AM 80.6 °F 82.3 °F 64.4 °F 58% 29.84 in 10.0 mi South 12.7 mph - N/A   Clear
10:55 AM 80.6 °F 82.3 °F 64.4 °F 58% 29.84 in 10.0 mi South 11.5 mph 23.0 mph N/A   Clear
11:15 AM 80.6 °F 82.7 °F 66.2 °F 61% 29.84 in 10.0 mi South 10.4 mph 21.9 mph N/A   Clear
11:35 AM 82.4 °F 83.9 °F 64.4 °F 54% 29.84 in 10.0 mi South 13.8 mph 24.2 mph N/A   Clear
11:55 AM 82.4 °F 83.9 °F 64.4 °F 54% 29.83 in 10.0 mi South 17.3 mph 24.2 mph N/A   Clear
12:15 PM 82.4 °F 83.9 °F 64.4 °F 54% 29.82 in 10.0 mi SSW 19.6 mph 25.3 mph N/A   Clear
12:35 PM 84.2 °F 84.4 °F 60.8 °F 45% 29.82 in 10.0 mi South 18.4 mph 29.9 mph N/A   Clear
12:55 PM 84.2 °F 85.0 °F 62.6 °F 48% 29.82 in 10.0 mi South 13.8 mph 23.0 mph N/A   Scattered Clouds
1:15 PM 82.4 °F 83.4 °F 62.6 °F 51% 29.81 in 10.0 mi South 12.7 mph 24.2 mph N/A   Scattered Clouds
1:35 PM 82.4 °F 82.9 °F 60.8 °F 48% 29.81 in 10.0 mi South 16.1 mph 27.6 mph N/A   Scattered Clouds
1:55 PM 84.2 °F 85.0 °F 62.6 °F 48% 29.81 in 10.0 mi South 17.3 mph 26.5 mph N/A   Scattered Clouds
2:15 PM 84.2 °F 85.0 °F 62.6 °F 48% 29.81 in 10.0 mi South 19.6 mph 25.3 mph N/A   Scattered Clouds
2:35 PM 84.2 °F 85.0 °F 62.6 °F 48% 29.80 in 10.0 mi South 18.4 mph 23.0 mph N/A   Scattered Clouds
2:55 PM 84.2 °F 85.0 °F 62.6 °F 48% 29.80 in 10.0 mi South 20.7 mph 27.6 mph N/A   Scattered Clouds
3:15 PM 84.2 °F 84.4 °F 60.8 °F 45% 29.80 in 10.0 mi South 20.7 mph 26.5 mph N/A   Scattered Clouds
3:35 PM 84.2 °F 85.0 °F 62.6 °F 48% 29.79 in 10.0 mi South 18.4 mph 27.6 mph N/A   Scattered Clouds
3:55 PM 84.2 °F 84.4 °F 60.8 °F 45% 29.79 in 10.0 mi South 18.4 mph 27.6 mph N/A   Mostly Cloudy
4:15 PM 82.4 °F 82.9 °F 60.8 °F 48% 29.79 in 10.0 mi South 12.7 mph 25.3 mph N/A   Scattered Clouds
4:35 PM 84.2 °F 84.4 °F 60.8 °F 45% 29.79 in 10.0 mi South 21.9 mph 27.6 mph N/A   Scattered Clouds
4:55 PM 84.2 °F 83.8 °F 59.0 °F 42% 29.78 in 10.0 mi South 20.7 mph 27.6 mph N/A   Scattered Clouds
5:15 PM 84.2 °F 84.4 °F 60.8 °F 45% 29.78 in 10.0 mi SSW 19.6 mph 24.2 mph N/A   Scattered Clouds
5:35 PM 84.2 °F 84.4 °F 60.8 °F 45% 29.77 in 10.0 mi South 16.1 mph 21.9 mph N/A   Scattered Clouds
5:55 PM 82.4 °F 82.9 °F 60.8 °F 48% 29.77 in 10.0 mi SSE 17.3 mph 26.5 mph N/A   Clear
6:15 PM 82.4 °F 81.7 °F 55.4 °F 39% 29.77 in 10.0 mi South 17.3 mph 26.5 mph N/A   Clear
6:35 PM 82.4 °F 81.7 °F 55.4 °F 39% 29.77 in 10.0 mi South 17.3 mph 26.5 mph N/A   Clear
6:55 PM 82.4 °F 81.7 °F 55.4 °F 39% 29.76 in 10.0 mi South 17.3 mph 23.0 mph N/A   Clear
7:15 PM 80.6 °F 80.5 °F 55.4 °F 42% 29.76 in 10.0 mi South 12.7 mph 21.9 mph N/A   Clear
7:35 PM 80.6 °F 80.8 °F 57.2 °F 45% 29.76 in 10.0 mi South 15.0 mph 19.6 mph N/A   Clear
7:55 PM 80.6 °F 81.1 °F 59.0 °F 48% 29.76 in 10.0 mi South 10.4 mph 16.1 mph N/A   Clear
8:15 PM 78.8 °F - 60.8 °F 54% 29.76 in 10.0 mi South 9.2 mph - N/A   Clear
8:35 PM 77.0 °F - 60.8 °F 57% 29.76 in 10.0 mi South 8.1 mph - N/A   Clear
8:55 PM 77.0 °F - 60.8 °F 57% 29.77 in 10.0 mi South 8.1 mph - N/A   Clear
9:15 PM 75.2 °F - 60.8 °F 61% 29.77 in 10.0 mi SSE 8.1 mph - N/A   Clear
9:35 PM 75.2 °F - 60.8 °F 61% 29.77 in 10.0 mi South 9.2 mph - N/A   Clear
9:55 PM 75.2 °F - 60.8 °F 61% 29.77 in 10.0 mi South 10.4 mph 16.1 mph N/A   Clear
10:15 PM 75.2 °F - 60.8 °F 61% 29.77 in 10.0 mi South 10.4 mph 17.3 mph N/A   Clear
10:35 PM 75.2 °F - 60.8 °F 61% 29.75 in 10.0 mi SSE 12.7 mph 19.6 mph N/A   Clear
10:55 PM 75.2 °F - 60.8 °F 61% 29.75 in 10.0 mi South 13.8 mph 19.6 mph N/A   Clear
11:15 PM 75.2 °F - 60.8 °F 61% 29.77 in 10.0 mi South 10.4 mph 17.3 mph N/A   Clear
11:35 PM 73.4 °F - 60.8 °F 65% 29.77 in 10.0 mi South 12.7 mph 16.1 mph N/A   Clear
11:55 PM 73.4 °F - 60.8 °F 65% 29.77 in 10.0 mi South 11.5 mph - N/A   Clear